Wind_Speed
23 24 24 23 23 23 23 23 23 23 23 22 22 22 22 22 22 23 23 22 23 22 22 23 23 23 24 24 24 24 24 24 25 25 26 27 27 27 28 29 29 28 27
25 25 25 24 25 25 24 24 24 24 24 23 23 23 22 23 23 23 24 24 24 24 23 24 24 24 25 25 25 25 25 25 26 26 26 27 28 28 29 29 30 30 29
25 25 26 26 25 25 25 25 25 25 25 25 24 24 24 24 25 25 25 25 25 25 25 26 26 26 26 26 26 27 27 27 27 28 28 28 28 30 30 30 31 31 31
25 26 25 26 26 26 26 26 26 25 26 25 25 25 25 26 26 27 27 25 25 25 26 27 27 27 27 27 28 28 29 29 29 29 30 30 29 30 31 31 31 32 32
25 25 25 25 26 26 26 27 27 27 26 26 25 25 26 27 27 27 27 27 27 27 27 28 28 29 29 28 28 29 29 30 31 31 31 31 31 31 32 32 32 33 32
25 25 25 25 25 26 26 26 26 27 26 26 25 25 26 27 28 28 28 28 28 28 28 28 29 30 31 30 30 30 30 29 30 31 32 32 33 33 33 34 34 34 34
25 25 25 25 25 26 26 26 26 26 26 26 26 26 26 27 28 28 28 28 28 29 30 29 29 30 31 32 32 32 31 31 30 31 31 31 32 33 34 35 36 35 35
23 24 25 25 25 25 25 26 26 26 26 26 27 27 26 26 26 27 28 28 29 30 30 30 30 30 31 32 32 33 33 33 32 33 33 33 33 33 34 35 36 36 35
23 24 24 24 24 25 25 26 25 25 26 26 27 28 28 27 26 27 28 28 29 29 30 30 31 31 32 33 33 33 34 34 34 34 34 34 34 34 35 35 36 36 36
24 24 24 25 25 25 25 24 25 26 27 27 28 28 28 28 28 27 27 29 30 30 30 31 31 32 32 32 33 34 34 34 35 35 36 36 36 36 36 36 37 37 37
24 24 25 25 25 24 24 25 26 27 28 28 28 28 28 29 28 28 28 29 31 31 31 31 31 32 32 32 33 34 35 35 36 36 36 37 37 37 37 37 37 38 38
24 25 25 25 24 24 25 25 26 28 28 28 28 28 29 29 29 30 30 31 31 32 32 31 32 32 33 33 33 34 34 35 36 36 36 36 36 37 38 38 38 38 38
24 25 24 24 24 25 26 26 27 28 28 28 28 29 30 30 31 31 30 30 31 32 32 32 32 33 33 33 33 34 35 35 36 36 36 37 37 37 38 38 39 39 38
24 23 23 24 24 25 26 27 28 28 28 28 29 30 30 31 31 31 31 31 31 31 31 31 31 32 32 33 33 34 35 35 35 36 36 37 37 38 38 39 40 40 40
23 23 23 24 24 25 26 27 28 28 28 29 30 31 31 31 32 32 32 32 33 32 31 31 32 32 32 32 32 33 34 35 35 36 36 37 38 38 39 39 40 41 41
22 23 23 24 24 25 26 27 28 28 29 30 31 31 31 31 31 32 32 32 33 34 33 32 33 33 33 33 33 33 33 34 35 35 36 37 37 39 40 40 40 41 42
21 22 23 24 24 24 26 27 28 28 29 30 29 30 30 31 32 32 32 32 32 33 33 33 33 33 33 33 33 33 34 34 34 35 35 35 36 37 38 39 40 41 42
21 21 22 23 24 25 27 27 28 28 29 28 29 29 30 31 31 31 32 32 32 32 33 33 32 33 33 34 34 34 34 34 34 34 35 35 36 37 39 38 39 40 41
21 21 22 24 25 26 26 27 27 28 28 28 29 29 30 30 30 30 30 30 31 32 32 32 32 33 33 33 33 34 34 34 34 34 35 34 35 36 36 38 39 40 41
21 21 22 23 24 25 26 26 26 27 28 28 29 30 30 29 28 29 29 30 31 32 32 33 33 32 32 32 32 32 33 34 35 35 35 35 36 36 36 37 39 40 40
21 22 22 23 24 25 25 26 27 28 28 29 29 29 29 29 29 29 29 29 30 30 30 30 31 30 30 31 31 31 32 33 34 34 34 35 36 36 37 37 38 39 40
21 21 21 23 24 25 26 26 27 28 28 29 29 29 29 29 29 29 30 30 29 29 29 30 30 28 28 29 30 30 31 31 31 32 32 33 34 35 35 36 37 38 39
21 22 22 24 25 26 26 27 27 28 29 29 28 28 28 28 28 29 29 29 29 28 28 29 28 27 27 28 28 29 29 29 30 30 31 31 32 32 34 35 35 36 38
21 22 22 24 25 26 26 27 28 28 29 28 28 28 28 28 27 27 28 28 28 27 27 27 27 27 27 27 27 27 27 28 29 30 31 31 32 33 33 34 34 35 36
21 22 23 24 25 26 26 27 28 28 28 29 29 28 27 26 26 26 26 27 26 25 26 26 27 26 25 26 26 25 25 26 26 27 28 29 29 30 31 32 33 34 35
21 22 22 23 25 26 26 27 28 28 28 28 28 27 26 26 26 26 26 25 24 24 24 24 25 24 24 24 24 24 24 24 24 25 26 27 28 29 29 30 32 34 34
Wind_Direction
292 293 294 293 292 291 291 291 290 289 289 288 287 287 285 285 284 283 280 279 278 276 275 274 272 271 269 267 264 262 260 258 255 254 252 250 250 249 247 246 246 246 246
291 292 293 293 291 291 290 291 291 290 290 289 288 286 285 285 284 284 282 279 278 276 275 275 273 270 270 267 265 261 259 258 257 255 253 251 251 249 248 247 246 245 245
290 290 290 290 291 290 290 291 292 290 290 289 287 284 283 286 285 284 283 281 278 275 274 274 273 271 268 267 266 263 260 258 257 255 253 252 252 250 249 248 247 245 245
291 290 290 290 290 290 291 292 292 292 292 290 287 285 283 283 284 283 283 281 277 274 273 272 272 271 269 267 266 265 261 258 256 254 253 253 252 251 249 248 247 245 245
291 291 290 291 291 291 293 291 290 292 293 291 287 286 284 282 283 284 282 281 279 277 275 273 271 271 270 269 268 267 265 260 257 255 254 253 252 251 250 248 247 246 245
291 291 290 290 290 290 291 291 290 292 292 291 289 288 287 286 286 284 284 283 281 280 278 277 274 271 269 269 268 268 266 263 259 256 255 254 253 252 251 249 247 246 245
292 292 292 293 292 292 292 292 291 292 293 292 291 290 290 290 289 287 285 284 283 282 281 279 276 274 271 269 268 267 266 264 261 257 256 255 254 253 251 249 247 246 246
294 293 294 296 295 293 292 292 291 291 292 292 291 291 291 289 287 286 285 285 284 283 283 281 278 275 273 269 268 265 264 263 261 258 257 255 254 253 251 249 246 247 247
296 295 295 296 296 295 292 292 293 292 291 291 291 291 291 291 288 287 287 286 286 285 283 281 279 277 275 271 268 267 265 262 260 259 257 255 254 252 251 248 247 246 246
297 297 298 297 297 296 294 295 294 293 293 293 291 291 291 291 290 288 288 287 287 286 285 283 281 279 277 273 269 265 263 261 259 258 257 255 254 253 251 249 248 246 245
298 298 299 297 296 296 298 297 296 296 295 294 292 292 291 291 291 290 288 287 287 287 286 284 281 280 278 275 271 267 263 262 260 258 257 254 253 252 250 249 248 246 245
299 299 301 300 299 299 300 301 299 298 297 296 295 293 292 292 293 291 290 288 287 288 287 284 281 279 276 275 272 268 265 263 261 260 259 257 255 253 250 249 248 246 245
300 300 303 302 302 303 303 302 302 302 300 298 297 295 293 292 293 292 291 290 288 288 288 286 283 280 278 276 274 271 267 264 262 261 259 258 256 255 253 251 249 247 245
302 303 305 304 304 305 304 303 304 304 302 300 298 296 294 293 293 292 293 292 290 288 287 287 285 284 282 279 276 272 268 266 264 262 261 258 256 254 253 251 248 247 246
304 306 307 306 305 306 308 308 307 307 304 302 300 298 296 294 293 292 294 293 292 290 288 287 286 285 282 279 276 273 270 267 263 261 262 260 256 254 252 251 249 247 246
309 311 311 310 309 310 311 310 309 307 305 303 302 300 299 297 294 293 293 293 293 291 289 287 286 285 283 281 279 275 272 269 264 261 261 259 258 255 253 251 249 247 246
311 315 313 311 311 312 313 313 311 310 308 306 304 302 301 300 297 294 293 294 293 291 290 288 287 286 284 281 280 277 273 270 265 261 261 260 257 256 252 252 250 248 247
314 314 314 314 313 314 315 314 313 312 311 310 308 306 304 302 299 296 295 294 293 292 291 290 287 286 284 282 279 278 275 271 267 264 261 260 258 257 253 251 251 248 247
317 316 316 316 316 316 315 315 315 315 313 312 310 308 305 303 301 299 296 295 295 294 292 290 287 285 284 282 278 276 275 271 267 265 262 261 260 257 254 252 251 248 247
318 318 318 319 320 319 318 318 318 317 316 314 312 310 308 305 304 302 300 297 296 295 293 290 287 285 282 281 279 277 274 271 266 266 263 262 260 258 256 253 252 250 247
319 320 321 322 324 324 322 321 321 319 318 317 315 313 311 308 306 305 302 301 299 298 295 294 291 288 285 282 279 279 276 272 269 267 265 262 261 259 257 255 253 251 247
323 323 324 324 326 327 326 324 323 321 320 319 318 316 313 311 308 306 304 303 302 300 298 297 294 293 290 287 284 281 278 274 271 269 267 263 261 259 257 254 253 252 249
326 325 324 326 327 327 326 326 326 326 324 322 320 318 317 315 312 310 308 306 305 303 300 298 297 296 294 290 286 283 280 276 273 271 269 266 262 260 257 254 254 253 250
328 327 327 329 329 329 329 329 328 327 327 325 323 320 318 316 316 313 311 310 307 306 303 301 300 298 295 293 290 287 283 278 274 272 270 267 265 263 259 255 253 253 251
332 331 331 332 333 334 333 331 329 328 328 327 325 323 322 321 320 319 318 317 315 311 307 305 303 301 298 294 291 289 285 280 276 274 271 269 267 264 261 258 254 251 249
338 338 337 336 337 337 336 334 332 331 330 330 329 328 327 327 326 326 324 322 320 317 313 310 307 303 301 296 293 290 288 284 280 277 273 271 269 267 264 261 258 254 251
Height
5840 5839 5838 5837 5836 5834 5833 5832 5831 5830 5829 5827 5826 5826 5825 5824 5823 5823 5822 5822 5822 5821 5821 5821 5821 5821 5822 5822 5823 5823 5824 5825 5826 5827 5828 5829 5831 5833 5835 5837 5839 5841 5844
5835 5834 5833 5832 5830 5829 5828 5827 5825 5824 5823 5822 5821 5820 5820 5819 5818 5817 5817 5816 5816 5815 5815 5815 5815 5815 5815 5816 5816 5817 5818 5819 5820 5821 5822 5823 5825 5827 5829 5831 5833 5835 5838
5829 5829 5828 5826 5825 5824 5822 5821 5819 5819 5817 5816 5815 5814 5814 5813 5812 5811 5810 5810 5810 5809 5809 5809 5809 5808 5808 5809 5810 5810 5811 5812 5813 5814 5815 5817 5818 5820 5822 5824 5826 5829 5831
5824 5823 5822 5820 5819 5818 5816 5815 5814 5813 5812 5810 5809 5808 5808 5807 5806 5805 5804 5803 5803 5803 5802 5802 5801 5801 5801 5801 5802 5803 5803 5804 5805 5807 5808 5810 5811 5813 5815 5817 5819 5822 5825
5818 5817 5815 5814 5813 5812 5810 5809 5808 5807 5805 5804 5803 5802 5801 5800 5799 5798 5797 5796 5796 5795 5795 5795 5794 5794 5793 5793 5794 5795 5795 5796 5798 5799 5800 5802 5804 5805 5807 5810 5812 5814 5817
5812 5810 5809 5808 5807 5805 5804 5803 5802 5800 5799 5798 5796 5795 5794 5793 5792 5791 5790 5789 5788 5788 5787 5787 5786 5786 5786 5786 5786 5787 5788 5788 5789 5790 5792 5794 5795 5797 5799 5802 5804 5807 5810
5806 5804 5803 5802 5801 5799 5798 5797 5796 5794 5793 5791 5790 5789 5788 5786 5785 5783 5782 5782 5781 5780 5779 5778 5778 5778 5777 5777 5778 5778 5779 5780 5780 5782 5783 5785 5786 5789 5791 5793 5796 5799 5802
5800 5799 5798 5796 5794 5793 5792 5791 5789 5788 5786 5785 5783 5781 5781 5780 5778 5777 5775 5774 5773 5772 5771 5770 5769 5769 5768 5768 5769 5769 5769 5771 5772 5773 5774 5776 5778 5780 5782 5784 5787 5790 5793
5795 5794 5792 5790 5789 5788 5786 5785 5783 5781 5780 5778 5776 5774 5773 5772 5771 5770 5768 5766 5765 5763 5762 5761 5760 5759 5758 5758 5759 5759 5760 5761 5762 5764 5765 5767 5768 5770 5773 5775 5778 5781 5784
5790 5788 5787 5785 5784 5782 5780 5779 5777 5775 5773 5771 5769 5767 5765 5764 5762 5762 5760 5758 5756 5755 5753 5752 5750 5749 5748 5748 5748 5749 5750 5750 5752 5754 5755 5757 5759 5761 5763 5766 5769 5772 5775
5785 5783 5781 5780 5778 5776 5774 5773 5771 5768 5766 5764 5762 5760 5758 5756 5754 5752 5752 5750 5747 5745 5744 5742 5741 5740 5739 5738 5738 5739 5739 5740 5741 5743 5745 5746 5749 5751 5753 5756 5759 5762 5765
5780 5778 5776 5774 5772 5771 5768 5766 5764 5762 5759 5757 5755 5752 5750 5748 5746 5744 5742 5740 5738 5736 5734 5732 5731 5730 5728 5728 5728 5728 5729 5730 5731 5732 5734 5736 5738 5740 5743 5746 5749 5752 5755
5774 5772 5770 5769 5767 5765 5763 5760 5758 5755 5752 5750 5747 5745 5742 5740 5737 5735 5732 5731 5729 5726 5724 5722 5721 5719 5718 5717 5717 5718 5718 5719 5720 5722 5723 5725 5727 5730 5732 5735 5738 5742 5745
5769 5766 5765 5763 5761 5759 5757 5754 5751 5748 5746 5743 5740 5737 5734 5732 5729 5726 5724 5721 5719 5717 5714 5712 5710 5709 5708 5707 5707 5707 5708 5709 5709 5711 5712 5714 5716 5719 5721 5724 5727 5731 5734
5764 5762 5760 5758 5756 5753 5751 5748 5745 5742 5739 5736 5733 5730 5726 5723 5720 5718 5715 5712 5709 5706 5705 5703 5701 5699 5698 5697 5697 5697 5697 5698 5699 5700 5701 5703 5705 5707 5710 5712 5716 5719 5723
5760 5757 5755 5752 5750 5747 5744 5741 5738 5735 5732 5729 5725 5722 5718 5715 5712 5709 5706 5703 5699 5697 5695 5693 5691 5689 5687 5687 5686 5686 5686 5687 5688 5689 5690 5692 5694 5696 5698 5701 5704 5707 5711
5754 5752 5749 5747 5744 5741 5739 5735 5732 5728 5725 5721 5718 5714 5710 5707 5703 5700 5697 5694 5690 5687 5685 5683 5681 5679 5677 5676 5676 5675 5676 5676 5677 5678 5679 5681 5682 5684 5686 5689 5692 5696 5699
5749 5747 5744 5742 5739 5736 5733 5729 5726 5722 5718 5714 5710 5707 5703 5699 5695 5691 5688 5684 5681 5678 5675 5673 5671 5669 5667 5666 5666 5665 5665 5665 5666 5667 5668 5670 5671 5673 5675 5678 5681 5684 5687
5745 5743 5740 5737 5734 5731 5727 5724 5720 5716 5712 5708 5703 5699 5695 5691 5686 5683 5679 5676 5672 5669 5666 5664 5662 5659 5658 5656 5655 5654 5654 5654 5655 5656 5657 5658 5660 5661 5663 5666 5669 5672 5675
5742 5739 5736 5733 5729 5726 5722 5718 5714 5710 5705 5701 5696 5692 5687 5682 5678 5675 5671 5667 5664 5660 5657 5654 5652 5650 5648 5646 5644 5644 5643 5643 5644 5644 5646 5647 5648 5649 5652 5654 5657 5660 5663
5738 5735 5732 5729 5725 5721 5717 5713 5708 5704 5699 5694 5689 5684 5679 5674 5670 5667 5663 5659 5655 5651 5648 5645 5642 5640 5638 5636 5634 5633 5633 5632 5633 5633 5634 5635 5637 5638 5640 5642 5645 5648 5651
5735 5731 5728 5725 5721 5716 5712 5707 5703 5698 5693 5688 5683 5677 5672 5668 5663 5659 5655 5650 5646 5643 5640 5636 5634 5631 5629 5626 5625 5623 5623 5623 5623 5623 5623 5624 5625 5627 5629 5631 5633 5636 5639
5731 5728 5724 5721 5716 5712 5707 5702 5697 5692 5687 5681 5676 5670 5665 5660 5656 5651 5647 5642 5638 5634 5631 5628 5625 5622 5620 5618 5616 5615 5613 5612 5613 5613 5613 5613 5614 5616 5617 5620 5622 5625 5628
5728 5725 5721 5717 5712 5708 5703 5698 5693 5687 5681 5675 5670 5664 5659 5654 5649 5644 5640 5635 5631 5627 5624 5620 5617 5614 5611 5609 5607 5605 5604 5603 5603 5603 5602 5603 5604 5605 5607 5609 5611 5614 5616
5725 5722 5718 5713 5709 5704 5699 5693 5688 5682 5676 5670 5664 5659 5653 5648 5643 5638 5633 5629 5624 5620 5616 5613 5609 5606 5603 5601 5598 5597 5595 5594 5594 5594 5593 5594 5594 5595 5597 5599 5600 5603 5606
5723 5719 5715 5710 5705 5700 5695 5689 5683 5677 5671 5665 5659 5653 5648 5643 5637 5632 5627 5623 5618 5614 5610 5606 5603 5599 5596 5594 5591 5589 5587 5586 5585 5585 5584 5584 5585 5585 5587 5589 5590 5592 5594